Regional Weather Roundup
Issued by NWS

Home | Current Version | Previous Version | Text Only | Print | Product List | Glossary Off
Versions: 1 2 3 4 5 6 7 8 9 10 11 12 13 14 15 16 17 18 19 20 21 22 23 24 25 26 27 28 29 30 31 32 33 34 35 36 37 38 39 40 41 42 43 44 45 46 47 48 49 50

974
ASUS43 KMPX 280410
RWRMN
WEATHER ROUNDUP FOR MINNESOTA
NATIONAL WEATHER SERVICE TWIN CITIES/CHANHASSEN MN
1100 PM CDT SAT AUG 27 2016


NOTE: "FAIR" INDICATES FEW OR NO CLOUDS BELOW 12,000 FEET WITH NO
SIGNIFICANT WEATHER AND/OR OBSTRUCTIONS TO VISIBILITY. N/A MEANS
CURRENT SKY AND/OR WEATHER CONDITIONS ARE NOT AVAILABLE.

MNZ060>063-068>070-280500-
   Twin Cities Metro

CITY           SKY/WX    TMP DP  RH WIND       PRES   REMARKS
TWIN CITIES    CLEAR     64  61  90 E3        30.07R
ST PAUL        CLEAR     62  61  96 CALM      30.07R
CRYSTAL        FOG       59  56  89 CALM      30.06R VSB 1/4
BLAINE         FOG       59  59 100 CALM      30.07R VSB 1/4
LAKEVILLE      FOG       57  57 100 CALM      30.08R VSB 1/2
EDEN PRAIRIE   CLEAR     63  61  93 E3        30.06R
LAKEVILLE      FOG       57  57 100 CALM      30.08R VSB 1/2
SOUTH ST PAUL  CLEAR     62  61  98 CALM      30.07S FOG
LAKE ELMO      FOG       59  59 100 CALM      30.08R VSB 1/4
$$
MNZ001>005-007-008-013>017-022>024-027-028-280500-
   Northwest Minnesota

CITY           SKY/WX    TMP DP  RH WIND       PRES   REMARKS
BEMIDJI        CLEAR     56  55  99 SE7       30.02S
HALLOCK        CLEAR     57  55  94 SE6       29.95R
ROSEAU         CLEAR     57  52  82 CALM      29.99R
WARROAD        CLEAR     55  52  88 SE3       30.00R
THIEF RVR FALL CLEAR     54  54 100 S5        29.99R
CROOKSTON      CLEAR     57  55  94 S5        29.98R
FOSSTON        CLEAR     55  55 100 S6        30.00R
DETROIT LAKES  CLEAR     63  59  88 S8        30.02S
MOORHEAD       CLEAR     61  57  88 SE5       30.00S
PARK RAPIDS    CLEAR     62  57  83 E5        30.03R
MAHNOMEN       FAIR      57  56  96 S3        30.00R
$$
MNZ006-009>011-018-025>026-280500-
   North Central Minnesota

CITY           SKY/WX    TMP DP  RH WIND       PRES   REMARKS
BAUDETTE       CLEAR     54  53  97 SE5       30.00R
FLAG ISLAND    PTCLDY    63  57  82 CALM      29.98S HAZE
INTL FALLS     PTCLDY    54  52  93 VRB3      30.03R
WASKISH        PTCLDY    54  52  94 E3        30.02R
BIG FORK       CLEAR     54  52  94 CALM      30.05R
LONGVILLE      CLOUDY    57  57 100 CALM      30.05R
GRAND RAPIDS   CLOUDY    54  53  97 CALM      30.07R
CRANE LAKE     PTCLDY    48  48 100 CALM      30.07R
ORR            CLEAR     52  48  87 CALM      30.03S
COOK           MOCLDY    50  48  93 CALM      30.06S FOG
WALKER         FAIR      59  57  91 S6        30.03S
$$
MNZ012-019>021-037-280500-
   Northeast Minnesota

CITY           SKY/WX    TMP DP  RH WIND       PRES   REMARKS
DULUTH         MOCLDY    59  55  87 CALM      30.06S
ELY            CLEAR     55  54  94 CALM      30.05R
HIBBING        FOG       48  48 100 CALM      30.06S VSB 1/4
EVELETH        FOG       53  52  97 CALM      30.07S VSB 3/4
DULUTH HARBOR  CLOUDY    63  59  88 CALM      30.06S
TWO HARBORS    CLOUDY    63  57  82 CALM      30.04F
SILVER BAY     DRIZZLE   59  57  94 CALM      30.05F
GRAND MARAIS     N/A     61  58  90 CALM      30.06S
G MARAIS ARPRT CLOUDY    54  50  87 CALM      30.09S
$$
MNZ029>031-032-039>041-046>048-054>057-064-280500-
   West Central Minnesota

CITY           SKY/WX    TMP DP  RH WIND       PRES   REMARKS
FERGUS FALLS   CLEAR     63  61  94 SE8       30.03R
WHEATON        CLEAR     61  61 100 SE9       30.02R
MORRIS         CLEAR     61  59  94 CALM      30.02S
ALEXANDRIA     CLEAR     59  57  93 E6        30.05S
ELBOW LAKE     FAIR      60  59  94 E7        30.02S
WADENA         CLEAR     57  55  94 S6        30.03R
GLENWOOD       CLEAR     57  55  94 SE6       30.05S
APPLETON       CLEAR     63  57  82 SE6       30.03R
BENSON         CLEAR     63  57  82 S7        30.04S
ORTONVILLE     CLEAR     63  57  82 CALM      30.02S
MADISON        CLEAR     63  61  94 SE6       30.03R
WILLMAR        FAIR      61  59  94 SE5       30.07R
$$
MNZ033>034-036-042>043-049>051-058-059-280500-
   Central Minnesota

CITY           SKY/WX    TMP DP  RH WIND       PRES   REMARKS
ST CLOUD       FOG       60  60 100 E5        30.07R VSB 1/4
SAUK CENTRE    FAIR      58  57  98 E3        30.06R
PAYNESVILLE    MOCLDY    60  60 100 SE5       30.06S
AITKIN         CLOUDY    63  57  82 CALM      30.05R
PINE RIVER     CLEAR     57  57 100 SE3       30.08R
BRAINERD       CLOUDY    60  59  96 S6        30.06R
STAPLES        CLEAR     57  57 100 CALM      30.04R
LONG PRAIRIE   FAIR      55  55 100 CALM      30.07R FOG
LITTLE FALLS   CLEAR     57  55  94 S3        30.06S FOG
LITCHFIELD     FOG       59  59 100 CALM      30.07S VSB 1/4
BUFFALO        FOG       60  59  94 CALM      30.07S VSB 1/2
MAPLE LAKE     FOG       59  59  99 CALM      30.08R VSB 1/4
HUTCHINSON     CLEAR     59  59 100 CALM      30.07S FOG
$$
MNZ037-044-045-052-053-280500-
   East Central Minnesota

CITY           SKY/WX    TMP DP  RH WIND       PRES   REMARKS
PRINCETON      FOG       63  61  94 CALM      30.07R VSB 3/4
MORA           CLOUDY    59  59 100 CALM      30.08S FOG
CAMBRIDGE      FOG       63  59  88 CALM      30.06R VSB<1/4
RUSH CITY      LGT RAIN  62  61  96 CALM      30.07R
MOOSE LAKE     CLOUDY    61  59  94 CALM      30.05R
HINCKLEY       CLOUDY    61  61 100 CALM      30.07R
CLOQUET        CLOUDY    59  55  88 CALM      30.08R
MCGREGOR       CLOUDY    61  59  94 SE5       30.06R
$$
MNZ071>073-080-081-089-090-097-098-280500-
   Southwest Minnesota

CITY           SKY/WX    TMP DP  RH WIND       PRES   REMARKS
MONTEVIDEO     CLEAR     61  59  94 S5        30.06R
GRANITE FALLS  CLEAR     65  62  90 E5        30.06S
CANBY          CLEAR     62  60  94 E6        30.05R
MARSHALL       CLEAR     64  62  93 SE6       30.05R
REDWOOD FALLS  CLEAR     63  61  93 E3        30.05R
OLIVIA         CLEAR     63  59  88 CALM      30.05S
PIPESTONE      CLEAR     64  61  88 SE7       30.05R
WINDOM         CLEAR     61  59  94 CALM      30.08R
WORTHINGTON    CLEAR     61  60  97 CALM      30.08R
JACKSON          N/A     61  57  88 E5        30.09R
TRACY          CLEAR     64  62  93 S3        30.07R
SLAYTON          N/A     61  61 100 SE3       30.07R VSB 3/4
$$
MNZ065>067-074>077-082>085-091>093-280500-
   South Central Minnesota

CITY           SKY/WX    TMP DP  RH WIND       PRES   REMARKS
MANKATO          N/A     64  61  88 SE5       30.07R VSB 1/2
NEW ULM          N/A     63  61  94 CALM      30.06S
ST JAMES       CLEAR     57  57 100 CALM      30.08R
FAIRMONT       CLEAR     61  60  97 CALM      30.08R
GLENCOE        CLEAR     62  62 100 CALM      30.07R
FARIBAULT      FOG       57  57 100 CALM      30.09R VSB 1/2
OWATONNA       PTCLDY    66  63  88 SE3       30.09R
WASECA         CLEAR     61  59  94 SE5       30.09S
ALBERT LEA     MOCLDY    63  61  94 CALM      30.09R FOG
$$
MNZ078>079-086>088-094>096-280500-
   Southeast Minnesota

CITY           SKY/WX    TMP DP  RH WIND       PRES   REMARKS
ROCHESTER      MOCLDY    66  65  96 SE3       30.10R
RED WING       FOG       63  61  94 CALM      30.07R VSB 1/2
STANTON          N/A     59  59 100 CALM      30.07R VSB 3/4
DODGE CENTER   MOCLDY    63  61  94 SE3       30.10R FOG
WINONA         CLOUDY    68  64  88 CALM      30.09R
AUSTIN         CLOUDY    66  64  94 SE3       30.09R
PRESTON        MOCLDY    66  64  93 S5        30.11R
$$
ABBREVIATIONS USED IN REMARKS
   TC - TEMPERATURES IN CELSIUS
  WCI - WIND CHILL INDEX
   HX - HEAT INDEX
  VSB - VISIBILITY
$$




USA.gov is the U.S. government's official web portal to all federal, state and local government web resources and services.